User: anonymous   Login
Location: Tierra del Sol
(32.6128°N, 116.3319°W)
Time: 01:39:31
(UTC-07:00)
Language:

Tiangong 2 - Orbit

View from above orbital plane
View from above orbital plane
View from above satellite
View from above satellite

Ground track
Ground track

The orbit data is extracted from the following two-line orbital elements,

1 41765U 16057A   18169.78700750 +.00036403 +87624-5 +10894-3 0  9994
2 41765 042.7858 331.7459 0004378 301.6932 153.8977 15.92705982100253
Epoch (UTC): 18 June 2018 18:53:17
Eccentricity: 0.0004378
inclination: 42.7858°
perigee height: 292 km
apogee height: 297 km
right ascension of ascending node: 331.7459°
argument of perigee: 301.6932°
revolutions per day: 15.92705982
mean anomaly at epoch: 153.8977°
orbit number at epoch: 10025

The dashed part of the orbit path shows where the satellite is in the earth's shadow,  

DLR